Location: Sternwarte ZA, Rosenfeld-Brittheim
(48.2889°N, 8.6789°E)
Time: 22:07:41
(UTC+01:00)

ISS - Pass Details

Date: 27 February 2021
Orbit: 417 x 422 km, 51.6° (Epoch: 02 March)

Event Time Altitude Azimuth Distance (km) Brightness Sun altitude
Exits shadow 06:25:04 11° 278° (W) 1,415 -1.8 -8.3°
Maximum altitude 06:28:07 48° 353° (N) 559 -3.2 -7.8°
Drops below altitude 10° 06:31:24 10° 69° (ENE) 1,500 0.3 -7.2°
Sets 06:33:33 0° 75° (ENE) 2,365 1.7 -6.9°
